FW1266 Weather Reports


time (UTC)temp
C
wind
direction
speed
KPH
gust
KPH
rain 1hr
cm
rain 24hr
cm
rain mn
cm
humidity
%
barometer
mb
20260906121622 16 117 1.6 3.2 0.00 0.08 0.00 91 1020.1
20260906121117 16 123 1.6 4.8 0.00 0.08 0.00 91 1020.1
20260906120610 16 148 0.0 4.8 0.00 0.08 0.00 91 1020.1
20260906120104 15 141 0.0 1.6 0.00 0.08 0.00 92 1020.0
20260906115559 15 129 0.0 1.6 0.00 0.08 0.00 92 1019.9
20260906115052 15 138 0.0 3.2 0.00 0.08 0.00 92 1019.9
20260906114547 15 106 0.0 3.2 0.00 0.08 0.00 92 1019.9
20260906114322 15 158 0.0 6.4 0.00 0.08 0.00 92 1019.7
20260906113535 15 136 1.6 6.4 0.00 0.08 0.00 92 1019.6
20260906113029 15 101 1.6 6.4 0.00 0.08 0.00 92 1019.6
20260906112523 15 122 0.0 4.8 0.00 0.08 0.00 92 1019.5
20260906112017 15 94 0.0 3.2 0.00 0.08 0.00 91 1019.5
20260906111517 15 133 0.0 1.6 0.00 0.08 0.00 91 1019.6
20260906111014 15 133 1.6 3.2 0.00 0.08 0.00 90 1019.6
20260906110513 15 130 1.6 3.2 0.00 0.08 0.00 90 1019.6
20260906110015 15 148 0.0 3.2 0.00 0.08 0.00 89 1019.6
20260906105749 15 129 0.0 3.2 0.00 0.08 0.00 89 1019.6
20260906105012 16 129 1.6 4.8 0.00 0.08 0.00 89 1019.4
20260906104512 16 142 0.0 4.8 0.00 0.08 0.00 89 1019.4
20260906104013 16 137 1.6 3.2 0.00 0.08 0.00 89 1019.2
20260906103753 16 118 1.6 6.4 0.00 0.08 0.00 89 1019.1
20260906103013 16 125 1.6 9.7 0.00 0.08 0.00 89 1019.2
20260906102513 16 92 1.6 9.7 0.00 0.08 0.00 88 1019.2
20260906102010 16 127 1.6 8.0 0.00 0.08 0.00 87 1019.4
20260906101510 16 120 1.6 4.8 0.00 0.08 0.00 87 1019.4
20260906101012 16 131 1.6 4.8 0.00 0.08 0.00 87 1019.4
20260906100510 16 110 3.2 8.0 0.00 0.08 0.00 87 1019.2
20260906100029 16 115 3.2 8.0 0.00 0.08 0.00 86 1019.2
20260906100019 16 101 3.2 8.0 0.00 0.08 0.00 86 1019.1
20260906095002 16 98 3.2 8.0 0.00 0.08 0.00 86 1019.1
20260906094503 16 53 3.2 9.7 0.00 0.08 0.00 86 1019.0
20260906093957 16 104 1.6 9.7 0.00 0.08 0.00 85 1019.0
20260906093451 16 105 1.6 4.8 0.00 0.08 0.00 86 1019.1
20260906092945 16 141 1.6 6.4 0.00 0.08 0.00 85 1019.0
20260906092439 16 89 1.6 6.4 0.00 0.08 0.00 85 1019.0
20260906091940 16 102 1.6 9.7 0.00 0.08 0.00 85 1019.0
20260906091439 16 149 3.2 9.7 0.00 0.08 0.00 85 1019.0
20260906091224 16 104 3.2 8.0 0.00 0.08 0.00 85 1019.0
20260906090441 16 116 3.2 8.0 0.00 0.08 0.00 85 1019.0
20260906085940 16 95 3.2 8.0 0.00 0.08 0.00 85 1018.9
20260906085440 16 86 3.2 8.0 0.00 0.08 0.00 85 1019.1
20260906084941 16 98 1.6 6.4 0.00 0.08 0.00 85 1019.0
20260906084441 16 108 1.6 6.4 0.00 0.08 0.00 85 1018.8
20260906083939 16 71 1.6 6.4 0.00 0.08 0.00 86 1018.7
20260906083440 16 100 1.6 4.8 0.00 0.08 0.00 86 1018.5
20260906082941 16 106 1.6 4.8 0.00 0.08 0.00 85 1018.4
20260906082440 16 120 1.6 6.4 0.00 0.08 0.00 85 1018.5
20260906081939 16 94 1.6 12.9 0.00 0.08 0.00 85 1018.6
20260906081440 16 105 1.6 12.9 0.00 0.08 0.00 85 1018.4
20260906081224 17 98 1.6 6.4 0.00 0.08 0.00 84 1018.4
20260906080438 17 97 1.6 9.7 0.00 0.08 0.00 85 1018.4
20260906075939 17 116 1.6 9.7 0.00 0.08 0.00 85 1018.2
20260906075438 17 65 1.6 8.0 0.00 0.08 0.00 84 1018.1
20260906074939 17 104 1.6 8.0 0.00 0.08 0.00 84 1018.2
20260906074715 17 110 3.2 8.0 0.00 0.08 0.00 84 1018.2
20260906073937 17 77 3.2 11.3 0.00 0.08 0.00 84 1018.1
20260906073435 17 94 3.2 11.3 0.00 0.08 0.00 85 1018.1
20260906072933 17 97 3.2 8.0 0.00 0.08 0.00 85 1018.0
20260906072431 17 100 1.6 4.8 0.00 0.08 0.00 84 1018.0
20260906072215 17 103 1.6 8.0 0.00 0.08 0.00 85 1018.0
20260906071432 17 94 1.6 8.0 0.00 0.08 0.00 85 1018.1
20260906070932 17 117 1.6 4.8 0.00 0.08 0.00 85 1018.1
20260906070433 17 78 0.0 4.8 0.00 0.08 0.00 84 1018.1
20260906065932 17 103 1.6 4.8 0.00 0.08 0.00 84 1018.2
20260906065432 17 119 1.6 8.0 0.00 0.08 0.00 84 1018.2
20260906064933 17 129 1.6 8.0 0.00 0.08 0.00 83 1018.3
20260906064503 18 120 1.6 4.8 0.00 0.08 0.00 83 1018.3
20260906064450 17 105 1.6 4.8 0.00 0.08 0.00 83 1018.3
20260906063432 18 96 1.6 8.0 0.00 0.08 0.00 82 1018.4
20260906063211 18 139 1.6 8.0 0.00 0.08 0.00 82 1018.4
20260906062431 18 75 0.0 8.0 0.00 0.08 0.00 81 1018.2
20260906061929 18 120 0.0 4.8 0.00 0.08 0.00 82 1018.3
20260906061709 18 111 1.6 8.0 0.00 0.08 0.00 81 1018.2
20260906060927 18 111 1.6 8.0 0.00 0.08 0.00 80 1018.2
20260906060425 18 101 3.2 8.0 0.00 0.08 0.00 80 1018.2
20260906055926 18 96 3.2 9.7 0.00 0.08 0.00 81 1018.2
20260906055425 18 73 3.2 9.7 0.00 0.08 0.00 80 1018.2
20260906054927 18 104 3.2 9.7 0.00 0.08 0.00 80 1018.1
20260906054703 18 109 4.8 9.7 0.00 0.08 0.00 80 1018.1
20260906053927 19 86 3.2 11.3 0.00 0.08 0.00 79 1018.0
20260906053426 19 87 4.8 12.9 0.00 0.08 0.00 79 1018.0
20260906052927 19 105 3.2 12.9 0.00 0.08 0.00 81 1017.9
20260906052422 19 83 1.6 9.7 0.00 0.08 0.00 81 1017.9
20260906051923 19 141 1.6 9.7 0.00 0.08 0.00 80 1018.0
20260906051422 19 114 1.6 8.0 0.00 0.08 0.00 80 1018.1
20260906050921 19 107 3.2 11.3 0.00 0.08 0.00 80 1018.1
20260906050421 20 122 3.2 11.3 0.00 0.08 0.00 80 1018.0
20260906045922 20 101 3.2 12.9 0.00 0.08 0.00 80 1017.9
20260906045423 20 120 3.2 12.9 0.00 0.08 0.00 81 1017.8
20260906045205 20 107 1.6 8.0 0.00 0.08 0.00 81 1017.8
20260906044423 20 129 1.6 8.0 0.00 0.08 0.00 81 1017.8
20260906043922 20 108 1.6 8.0 0.00 0.08 0.00 82 1017.8
20260906043421 20 124 1.6 6.4 0.00 0.08 0.00 82 1017.7
20260906042923 20 82 3.2 9.7 0.00 0.08 0.00 82 1017.6
20260906042705 20 97 4.8 9.7 0.00 0.08 0.00 83 1017.6
20260906041921 20 100 3.2 9.7 0.00 0.08 0.00 84 1017.3
20260906041423 20 94 1.6 9.7 0.00 0.08 0.00 84 1017.3
20260906040923 20 124 1.6 9.7 0.00 0.08 0.00 85 1017.3
20260906040423 20 120 1.6 8.0 0.00 0.08 0.00 85 1017.3
20260906035920 20 131 1.6 8.0 0.00 0.08 0.08 86 1017.1
20260906035415 20 133 0.0 4.8 0.00 0.08 0.08 86 1017.2
20260906034908 20 122 0.0 3.2 0.00 0.08 0.08 86 1017.3
20260906034424 20 121 0.0 4.8 0.00 0.08 0.08 86 1017.2
20260906034415 20 124 0.0 3.2 0.00 0.08 0.08 86 1017.2
20260906033630 21 142 1.6 6.4 0.00 0.08 0.08 85 1017.1
20260906032845 21 113 1.6 6.4 0.00 0.08 0.08 85 1017.0
20260906032338 21 94 1.6 4.8 0.00 0.08 0.08 85 1017.0
20260906031833 21 120 0.0 4.8 0.00 0.08 0.08 86 1016.9
20260906031327 21 77 0.0 3.2 0.00 0.08 0.08 89 1016.9
20260906030821 21 136 1.6 3.2 0.00 0.08 0.08 89 1017.0
20260906030315 21 146 1.6 6.4 0.00 0.08 0.08 90 1017.0
20260906030048 21 139 0.0 6.4 0.00 0.08 0.08 90 1017.0
20260906025306 21 141 0.0 1.6 0.00 0.08 0.08 91 1017.0
20260906024756 21 133 0.0 1.6 0.00 0.08 0.08 92 1016.9
20260906024251 21 134 0.0 1.6 0.00 0.08 0.08 93 1016.9
20260906023745 21 153 0.0 0.0 0.00 0.08 0.08 94 1016.9
20260906023239 21 153 0.0 0.0 0.00 0.08 0.08 95 1016.8
20260906022738 21 153 0.0 0.0 0.00 0.08 0.08 95 1016.7
20260906022235 21 153 0.0 1.6 0.00 0.08 0.08 95 1016.8
20260906022013 21 153 0.0 3.2 0.00 0.08 0.08 95 1016.7
20260906021231 21 152 0.0 3.2 0.00 0.08 0.08 95 1016.6
20260906020729 21 153 0.0 1.6 0.00 0.08 0.08 95 1016.5
20260906020229 21 153 0.0 0.0 0.00 0.08 0.08 95 1016.6
20260906015729 21 153 0.0 1.6 0.00 0.08 0.08 95 1016.5
20260906015227 21 153 0.0 1.6 0.00 0.08 0.08 94 1016.6
20260906014726 21 79 0.0 1.6 0.00 0.08 0.08 94 1016.5
20260906014503 21 79 0.0 1.6 0.00 0.08 0.08 94 1016.5
20260906013722 21 79 0.0 1.6 0.00 0.08 0.08 94 1016.6
20260906013220 21 79 0.0 1.6 0.00 0.08 0.08 94 1016.5
20260906012720 21 275 0.0 1.6 0.00 0.08 0.08 94 1016.5
20260906012216 21 275 0.0 1.6 0.00 0.08 0.08 94 1016.5
20260906011718 21 275 0.0 1.6 0.00 0.08 0.08 93 1016.4
20260906011218 22 275 0.0 1.6 0.00 0.08 0.08 93 1016.5
20260906010718 22 275 1.6 4.8 0.00 0.08 0.08 93 1016.5
20260906010217 22 8 3.2 4.8 0.00 0.08 0.08 93 1016.4
20260906005716 22 11 4.8 8.0 0.00 0.08 0.08 93 1016.3
20260906005217 22 349 6.4 9.7 0.00 0.08 0.08 93 1016.2
20260906004728 22 337 8.0 12.9 0.00 0.08 0.08 93 1016.1
20260906004720 22 319 6.4 11.3 0.00 0.08 0.08 93 1016.3
20260906003940 22 325 9.7 14.5 0.00 0.08 0.08 93 1016.1
20260906003433 22 319 9.7 14.5 0.00 0.08 0.08 92 1016.1
20260906002647 22 328 8.0 14.5 0.00 0.08 0.08 93 1016.1
20260906002146 22 326 8.0 12.9 0.00 0.08 0.08 93 1016.2
20260906001925 22 323 6.4 12.9 0.00 0.08 0.08 92 1016.1
20260906001146 22 338 8.0 12.9 0.00 0.08 0.08 92 1016.1
20260906000929 22 331 9.7 12.9 0.00 0.08 0.08 91 1016.1
20260906000144 22 346 9.7 12.9 0.00 0.08 0.08 91 1016.2
20260905235644 22 322 9.7 16.1 0.00 0.08 0.08 91 1016.2
20260905235145 23 316 9.7 16.1 0.00 0.08 0.08 89 1016.2
20260905234643 23 331 4.8 14.5 0.00 0.08 0.08 86 1016.3
20260905234144 24 298 3.2 6.4 0.00 0.08 0.08 84 1016.2
20260905233644 25 64 1.6 4.8 0.00 0.08 0.08 83 1016.1
20260905233143 25 19 1.6 4.8 0.00 0.08 0.08 83 1016.1
20260905232642 25 60 3.2 4.8 0.00 0.08 0.08 82 1015.9
20260905232143 25 52 3.2 6.4 0.00 0.08 0.08 81 1016.0
20260905231643 25 51 3.2 6.4 0.00 0.08 0.08 82 1016.0
20260905231142 25 58 3.2 6.4 0.00 0.08 0.08 82 1016.1
20260905230921 24 82 4.8 8.0 0.00 0.08 0.08 82 1016.0
20260905230138 24 56 4.8 9.7 0.00 0.08 0.08 83 1015.9
20260905225637 24 58 4.8 9.7 0.00 0.08 0.08 84 1015.9
20260905225206 24 46 4.8 11.3 0.00 0.08 0.08 84 1016.0
20260905225152 24 44 4.8 11.3 0.00 0.08 0.08 84 1015.9
20260905224139 24 49 6.4 11.3 0.00 0.08 0.08 85 1016.0
20260905223637 24 76 6.4 9.7 0.00 0.08 0.08 85 1015.9
20260905223420 23 37 6.4 11.3 0.00 0.08 0.08 86 1015.9
20260905222634 23 42 4.8 11.3 0.00 0.08 0.08 86 1015.9
20260905222137 23 42 3.2 8.0 0.00 0.08 0.08 87 1015.9
20260905221911 23 40 3.2 8.0 0.00 0.08 0.08 87 1015.9
20260905221131 23 53 1.6 6.4 0.00 0.08 0.08 87 1015.7
20260905220631 23 79 1.6 4.8 0.00 0.08 0.08 89 1015.6
20260905220131 23 80 1.6 4.8 0.00 0.08 0.08 89 1015.5
20260905215911 23 85 1.6 6.4 0.00 0.08 0.08 89 1015.4
20260905215131 23 75 3.2 8.0 0.00 0.08 0.08 89 1015.4
20260905214631 23 77 4.8 11.3 0.00 0.08 0.08 90 1015.4
20260905214416 23 79 6.4 12.9 0.00 0.08 0.08 90 1015.4
20260905213913 23 54 6.4 12.9 0.00 0.08 0.08 91 1015.3
20260905213127 22 65 4.8 11.3 0.00 0.08 0.08 92 1015.4
20260905212628 22 58 4.8 9.7 0.00 0.08 0.08 93 1015.3
20260905212158 22 72 4.8 12.9 0.00 0.08 0.08 93 1015.3
20260905212144 22 73 4.8 8.0 0.00 0.08 0.08 93 1015.2
20260905211128 22 89 6.4 12.9 0.03 0.08 0.08 94 1015.3
20260905210627 22 39 6.4 11.3 0.03 0.08 0.08 94 1015.2
20260905210127 22 70 4.8 11.3 0.05 0.08 0.08 94 1015.2
20260905205628 21 89 4.8 12.9 0.05 0.08 0.08 95 1015.2
20260905205128 21 97 6.4 12.9 0.08 0.08 0.08 96 1015.2
20260905204628 21 73 4.8 11.3 0.08 0.08 0.08 96 1015.1
20260905204129 21 69 4.8 9.7 0.08 0.08 0.08 96 1015.1
20260905203629 21 110 4.8 9.7 0.08 0.08 0.08 97 1015.2
20260905203129 21 77 6.4 9.7 0.08 0.08 0.08 97 1015.3
20260905202910 21 75 4.8 9.7 0.08 0.08 0.08 97 1015.5
20260905202128 21 74 4.8 9.7 0.08 0.08 0.08 97 1015.5
20260905201626 21 82 4.8 11.3 0.08 0.08 0.08 96 1015.6
20260905201408 21 69 6.4 11.3 0.05 0.05 0.08 96 1015.7
20260905200906 21 75 6.4 11.3 0.05 0.05 0.05 96 1015.7
20260905200126 21 86 6.4 12.9 0.03 0.03 0.03 96 1015.9
20260905195626 21 79 6.4 12.9 0.03 0.03 0.03 96 1015.9
20260905195410 21 62 6.4 14.5 0.00 0.00 0.00 96 1015.8
20260905194625 21 58 8.0 14.5 0.00 0.00 0.00 95 1015.9
20260905194126 21 79 8.0 14.5 0.00 0.00 0.00 94 1015.9
20260905193621 21 60 9.7 19.3 0.00 0.00 0.00 95 1015.9
20260905193121 21 67 9.7 19.3 0.00 0.00 0.00 95 1015.9
20260905192622 21 77 9.7 20.9 0.00 0.00 0.00 94 1016.0
20260905192122 21 60 11.3 20.9 0.00 0.00 0.00 94 1016.0
20260905191620 21 74 9.7 19.3 0.00 0.00 0.00 93 1016.0
20260905191119 21 75 8.0 17.7 0.00 0.00 0.00 93 1015.9
20260905190618 21 59 8.0 16.1 0.00 0.00 0.00 93 1015.9
20260905190119 21 64 11.3 20.9 0.00 0.00 0.00 92 1016.0
20260905185621 21 65 11.3 20.9 0.00 0.00 0.00 92 1015.9
20260905185120 21 63 9.7 20.9 0.00 0.00 0.00 91 1015.9
20260905184614 22 70 9.7 20.9 0.00 0.00 0.00 91 1015.9
20260905184108 22 46 9.7 20.9 0.00 0.00 0.00 91 1016.0
20260905183602 22 77 11.3 20.9 0.00 0.00 0.00 91 1015.9
20260905183343 22 78 9.7 19.3 0.00 0.00 0.00 90 1016.0
20260905182833 22 66 8.0 16.1 0.00 0.00 0.00 90 1016.0
20260905182044 22 46 6.4 16.1 0.00 0.00 0.00 89 1015.9
20260905181819 22 59 6.4 11.3 0.00 0.00 0.00 90 1015.8
20260905181032 22 95 6.4 11.3 0.00 0.00 0.00 89 1015.7
20260905180526 22 37 6.4 11.3 0.00 0.00 0.00 89 1015.7
20260905180020 22 71 6.4 14.5 0.00 0.00 0.00 89 1015.8
20260905175514 22 64 8.0 14.5 0.00 0.00 0.00 90 1015.8
20260905175252 22 92 6.4 12.9 0.00 0.00 0.00 89 1015.8
20260905174506 22 42 6.4 12.9 0.00 0.00 0.00 89 1015.9
20260905174006 22 68 4.8 12.9 0.00 0.00 0.00 88 1015.8
20260905173506 22 70 4.8 9.7 0.00 0.00 0.00 88 1015.8
20260905173006 22 94 4.8 9.7 0.00 0.00 0.00 88 1015.9
20260905172505 22 55 4.8 9.7 0.00 0.00 0.00 89 1015.9
20260905172004 22 70 4.8 11.3 0.00 0.00 0.00 89 1015.9
20260905171506 22 50 8.0 16.1 0.00 0.03 0.00 89 1015.7
20260905171248 22 75 8.0 16.1 0.00 0.03 0.00 88 1015.8
20260905170505 22 70 8.0 14.5 0.00 0.03 0.00 89 1015.8
20260905170006 22 71 8.0 14.5 0.00 0.03 0.00 88 1015.9
20260905165502 22 72 8.0 14.5 0.00 0.03 0.00 89 1015.8
20260905165004 22 75 9.7 17.7 0.00 0.03 0.00 89 1015.8
20260905164500 22 76 11.3 19.3 0.00 0.03 0.00 90 1015.7
20260905164001 22 70 12.9 19.3 0.00 0.03 0.00 90 1015.6
20260905163501 22 72 12.9 16.1 0.00 0.03 0.00 90 1015.7
20260905163000 22 86 11.3 17.7 0.00 0.03 0.00 90 1015.6
20260905162458 22 73 8.0 17.7 0.00 0.03 0.00 90 1015.5
20260905161952 22 61 8.0 16.1 0.00 0.03 0.00 91 1015.7
20260905161445 22 72 9.7 16.1 0.00 0.03 0.00 90 1015.7
20260905161003 22 70 6.4 16.1 0.00 0.05 0.00 90 1015.8
20260905160952 22 68 9.7 16.1 0.00 0.05 0.00 90 1015.7
20260905155926 22 61 6.4 11.3 0.00 0.05 0.00 91 1015.8
20260905155443 22 77 6.4 14.5 0.00 0.08 0.00 91 1015.8
20260905155434 22 77 6.4 14.5 0.00 0.08 0.00 91 1015.9
20260905154408 22 60 6.4 12.9 0.00 0.10 0.00 92 1015.6
20260905153901 22 41 8.0 14.5 0.00 0.10 0.00 92 1015.6
20260905153356 22 65 8.0 16.1 0.00 0.10 0.00 92 1015.5
20260905152850 22 79 8.0 17.7 0.00 0.10 0.00 93 1015.5
20260905152344 22 63 9.7 17.7 0.00 0.10 0.00 94 1015.4
20260905151838 21 68 9.7 16.1 0.00 0.13 0.00 94 1015.4
20260905151332 21 59 8.0 14.5 0.00 0.20 0.00 94 1015.4
20260905150826 21 91 8.0 14.5 0.00 0.20 0.00 94 1015.5
20260905150320 21 71 8.0 14.5 0.00 0.20 0.00 94 1015.4
20260905145814 21 77 8.0 14.5 0.00 0.20 0.00 94 1015.3
20260905145308 21 92 6.4 11.3 0.00 0.20 0.00 94 1015.3
20260905144802 21 91 6.4 11.3 0.00 0.20 0.00 94 1015.4
20260905144256 21 61 8.0 14.5 0.00 0.20 0.00 95 1015.5
20260905143751 21 85 9.7 14.5 0.00 0.20 0.00 95 1015.5
20260905143244 21 72 9.7 16.1 0.00 0.20 0.00 95 1015.5
20260905142738 21 77 8.0 16.1 0.00 0.20 0.00 95 1015.3
20260905142232 21 55 8.0 14.5 0.00 0.23 0.00 95 1015.4
20260905142007 21 46 9.7 16.1 0.00 0.23 0.00 96 1015.2
20260905141220 21 89 9.7 16.1 0.00 0.28 0.00 95 1015.2
20260905140714 21 72 9.7 16.1 0.00 0.64 0.00 95 1015.1
20260905140208 21 87 8.0 16.1 0.00 0.76 0.00 95 1015.1
20260905135703 22 75 8.0 14.5 0.00 0.79 0.00 95 1015.1
20260905135156 22 92 8.0 16.1 0.00 0.79 0.00 95 1015.1
20260905134650 22 75 8.0 16.1 0.00 0.79 0.00 95 1015.0
20260905134144 22 77 8.0 12.9 0.00 0.79 0.00 95 1014.9
20260905133638 22 65 6.4 16.1 0.00 0.79 0.00 95 1014.9
20260905133132 22 108 8.0 17.7 0.00 0.79 0.00 95 1014.9
20260905132626 22 80 6.4 17.7 0.00 0.79 0.00 95 1014.9
20260905132120 22 69 8.0 19.3 0.00 0.79 0.00 95 1015.0
20260905131614 21 102 6.4 19.3 0.00 0.79 0.00 95 1014.8
20260905131351 21 102 4.8 12.9 0.00 0.79 0.00 95 1014.8
20260905130842 21 108 4.8 16.1 0.00 0.79 0.00 95 1014.8
20260905130337 21 124 8.0 16.1 0.00 0.79 0.00 95 1014.8
20260905125551 21 104 8.0 17.7 0.00 0.81 0.00 96 1014.8
20260905125044 21 79 6.4 17.7 0.00 0.89 0.00 95 1014.7
20260905124538 21 79 4.8 16.1 0.00 0.97 0.00 96 1014.6
20260905124032 21 101 3.2 12.9 0.00 1.22 0.00 96 1014.5
20260905123808 21 71 4.8 12.9 0.00 1.32 0.00 96 1014.4
20260905123302 21 105 4.8 12.9 0.00 1.35 0.00 96 1014.3
20260905122514 21 84 6.4 14.5 0.00 1.35 0.00 96 1014.3
20260905122008 21 114 8.0 16.1 0.00 1.35 0.00 96 1014.2